Location: Newark
(55.8871°S, 37.4681°W)
Time: 04:50:29
(UTC+00:00)

N. Korean satellite - Pass Details

Date: 14 October 2019
Orbit: 456 x 506 km, 97.2° (Epoch: 18 November)

Event Time Altitude Azimuth Distance (km) Brightness Sun altitude
Rises 06:13:38 0° 51° (NE) 2,632 10.6 -9.6°
Reaches altitude 10° 06:16:00 10° 64° (ENE) 1,753 9.9 -9.3°
Maximum altitude 06:19:04 24° 118° (ESE) 1,118 9.5 -8.9°
Drops below altitude 10° 06:22:09 10° 173° (S) 1,765 9.9 -8.5°
Sets 06:24:32 0° 186° (S) 2,654 10.6 -8.3°
